Tatalina, AK

10:19 AM AKDT on April 28, 2017 (GMT -0800)
Tatalina

Weather History for PATL - January, 2013

Change the Weather History Date:

Saturday, January 19, 2013

  Actual Average Record
Temperature  
Mean Temperature 0 °F -  
Max Temperature 9 °F 5 °F 39 °F (2008)
Min Temperature -10 °F -2 °F -34 °F (2004)
Degree Days  
Heating Degree Days 66    
Moisture  
Dew Point -2 °F    
Average Humidity 86    
Maximum Humidity 92    
Minimum Humidity 78    
Precipitation  
Precipitation 0.00 in - - ()
Sea Level Pressure  
Sea Level Pressure 30.14 in    
Wind  
Wind Speed 8 mph (NE)    
Max Wind Speed 12 mph    
Max Gust Speed 22 mph    
Visibility 7 miles    
Events Snow    
Averages and records for this station are not official NWS values.
T = Trace of Precipitation, MM = Missing Value Source: NWS Daily Summary

Daily Weather History Graph

Daily Weather History Graph

Search for Another Location

Airport or City:

Trip Planner

Search our weather history database for the weather conditions in past years. The results will help you decide how hot, cold, wet, or windy it might be!

Date:

Astronomy

Jan. 19, 2013 Rise Set
Actual Time 10:27 AM AKST 4:42 PM AKST
Civil Twilight 9:27 AM AKST 5:42 PM AKST
Nautical Twilight 8:28 AM AKST 6:41 PM AKST
Astronomical Twilight 7:33 AM AKST 7:36 PM AKST
Moon 11:39 AM AKST (1/19) 3:43 AM AKST (1/19)
Length of Visible Light 8h 14m
Length of Day
6h 15m
First Quarter, 58% of the Moon is Illuminated
Jan 19
First Quarter
Jan 26
Full
Feb 3
Last Quarter
Feb 9
New
Feb 17
First Quarter

Hourly Weather History & Observations

Time (AKST) Temp. Windchill Dew Point Humidity Pressure Visibility Wind Dir Wind Speed Gust Speed Precip Events Conditions
12:55 AM -10.5 °F -22.1 °F -14.8 °F 81% 30.34 in 10.0 mi NE 4.6 mph - N/A   Mostly Cloudy
1:55 AM -9.2 °F -20.7 °F -13.4 °F 82% 30.33 in 10.0 mi NE 4.6 mph - N/A   Mostly Cloudy
3:55 AM -4.5 °F -16.9 °F -9.2 °F 80% 30.32 in 10.0 mi Variable 5.8 mph - N/A   Overcast
4:36 AM -4.0 °F -17.8 °F -9.4 °F 78% 30.31 in 10.0 mi NNE 6.9 mph 15.0 mph N/A Snow Light Snow Showers
4:55 AM -3.8 °F -18.8 °F -8.9 °F 79% 30.31 in 10.0 mi NNE 8.1 mph 16.1 mph N/A   Overcast
5:16 AM -4.0 °F -19.0 °F -7.6 °F 85% 30.30 in 10.0 mi NNE 8.1 mph - N/A Snow Light Snow Showers
5:55 AM -3.3 °F -19.3 °F -8.0 °F 80% 30.28 in 6.0 mi NNE 9.2 mph - N/A Snow Light Snow Showers
6:36 AM -2.2 °F -18.9 °F -5.8 °F 85% 30.27 in 2.5 mi NNE 10.4 mph 19.6 mph N/A Snow Light Snow
6:55 AM -2.7 °F -18.6 °F -6.3 °F 85% 30.26 in 4.0 mi NNE 9.2 mph 17.3 mph N/A Snow Light Snow
7:16 AM -2.2 °F -18.0 °F -5.8 °F 85% 30.26 in 4.0 mi NNE 9.2 mph 15.0 mph N/A Snow Light Snow
7:36 AM -2.2 °F -16.8 °F -5.8 °F 85% 30.25 in 3.0 mi NNE 8.1 mph 15.0 mph N/A Snow Light Snow
7:55 AM -1.7 °F -17.3 °F -5.1 °F 85% 30.23 in 2.0 mi NNE 9.2 mph 15.0 mph N/A Snow Light Snow
8:16 AM -0.4 °F -14.7 °F -4.0 °F 85% 30.23 in 1.8 mi NE 8.1 mph 15.0 mph N/A Snow Light Snow
8:36 AM -4.0 °F -17.8 °F -7.6 °F 85% 30.23 in 2.5 mi Variable 6.9 mph - N/A Snow Light Snow
8:55 AM -5.1 °F -19.1 °F -8.0 °F 87% 30.23 in 1.8 mi ENE 6.9 mph - N/A Snow Light Snow
9:16 AM -4.0 °F -16.3 °F -7.6 °F 85% 30.23 in 3.0 mi ENE 5.8 mph - N/A Snow Light Snow
9:55 AM -4.2 °F -18.0 °F -7.2 °F 87% 30.22 in 2.5 mi East 6.9 mph - N/A Snow Light Snow
10:16 AM -4.0 °F -19.0 °F -5.8 °F 92% 30.20 in 1.5 mi NE 8.1 mph - N/A Snow Light Snow
10:36 AM 1.4 °F -12.5 °F -2.2 °F 85% 30.19 in 2.0 mi NNE 8.1 mph 18.4 mph N/A Snow Light Snow
10:55 AM 1.4 °F -13.5 °F -0.4 °F 92% 30.05 in 10.0 mi NE 9.2 mph 18.4 mph N/A Snow Light Snow
11:55 AM 0.7 °F -13.3 °F -1.5 °F 91% 30.18 in 10.0 mi NE 8.1 mph - N/A Snow Light Snow
12:55 PM 4.5 °F -11.5 °F 1.8 °F 89% 30.15 in 10.0 mi NE 11.5 mph 17.3 mph N/A   Overcast
1:55 PM 5.4 °F -9.6 °F 2.7 °F 89% 30.13 in 10.0 mi NE 10.4 mph 18.4 mph N/A Snow Light Snow Showers
2:36 PM 6.8 °F -6.9 °F 3.2 °F 85% 30.09 in 10.0 mi NNE 9.2 mph 16.1 mph N/A   Overcast
2:55 PM 6.3 °F -6.5 °F 3.7 °F 89% 30.08 in 10.0 mi NNE 8.1 mph 15.0 mph N/A   Overcast
3:55 PM 7.2 °F -8.1 °F 4.5 °F 89% 30.04 in 10.0 mi NNE 11.5 mph 19.6 mph N/A   Overcast
4:55 PM 8.2 °F -6.8 °F 5.2 °F 87% 30.00 in 10.0 mi NNE 11.5 mph 21.9 mph N/A   Overcast
5:55 PM 8.2 °F -6.8 °F 5.0 °F 87% 29.98 in 10.0 mi NNE 11.5 mph 20.7 mph N/A   Overcast
6:55 PM 9.0 °F -5.1 °F 5.9 °F 87% 29.95 in 10.0 mi NE 10.4 mph 19.6 mph N/A   Overcast
7:55 PM 8.8 °F -4.4 °F 5.4 °F 86% 29.95 in 10.0 mi NE 9.2 mph 17.3 mph N/A   Overcast
8:55 PM 8.4 °F -3.9 °F 5.7 °F 89% 29.94 in 10.0 mi NE 8.1 mph - N/A   Overcast
9:55 PM 7.3 °F -7.1 °F 3.7 °F 85% 29.94 in 10.0 mi NE 10.4 mph 17.3 mph N/A   Mostly Cloudy
10:55 PM 6.6 °F -6.1 °F 2.8 °F 84% 29.93 in 10.0 mi NE 8.1 mph 16.1 mph N/A   Overcast
11:16 PM 6.8 °F -6.9 °F 3.2 °F 85% 29.93 in 10.0 mi NE 9.2 mph 16.1 mph N/A Snow Light Snow Showers
11:36 PM 6.8 °F -7.8 °F 3.2 °F 85% 29.93 in 10.0 mi NE 10.4 mph 18.4 mph N/A   Overcast
11:55 PM 6.6 °F -5.0 °F 2.7 °F 84% 29.94 in 10.0 mi NE 6.9 mph - N/A Snow Light Snow Showers